Ketchikan, AK

7:25 AM AKST on November 15, 2018 (GMT -0900)
Ketchikan International

Weather History for PAKT - June, 2018

Change the Weather History Date:

Saturday, June 9, 2018

  Actual Average Record
Temperature  
Mean Temperature 50 °F -  
Max Temperature 57 °F 61 °F 85 °F (1969)
Min Temperature 42 °F 45 °F 39 °F (1973)
Degree Days  
Heating Degree Days 16    
Moisture  
Dew Point 44 °F    
Average Humidity 83    
Maximum Humidity 93    
Minimum Humidity 62    
Precipitation  
Precipitation 0.05 in - - ()
Sea Level Pressure  
Sea Level Pressure 29.91 in    
Wind  
Wind Speed 2 mph (WSW)    
Max Wind Speed 7 mph    
Max Gust Speed -    
Visibility 10 miles    
Events Rain    
Averages and records for this station are not official NWS values.
T = Trace of Precipitation, MM = Missing Value Source: NWS Daily Summary

Daily Weather History Graph

Daily Weather History Graph

Search for Another Location

Airport or City:

Astronomy

Jun. 09, 2018 Rise Set
Actual Time 4:06 AM AKDT 9:26 PM AKDT
Civil Twilight 3:08 AM AKDT 10:24 PM AKDT
Nautical Twilight 1:18 AM AKDT 12:13 AM AKDT
Astronomical Twilight Sun does not rise Sun does not rise
Moon 2:38 AM AKDT (6/9) 3:56 PM AKDT (6/9)
Length of Visible Light 19h 15m
Length of Day
17h 19m
Waning Crescent, 20% of the Moon is Illuminated
Jun 9
Waning Crescent
Jun 13
New
Jun 20
First Quarter
Jun 27
Full
Jul 5
Last Quarter

Hourly Weather History & Observations

Time (AKDT) Temp. Windchill Dew Point Humidity Pressure Visibility Wind Dir Wind Speed Gust Speed Precip Events Conditions
12:53 AM 44.1 °F - 41.0 °F 89% 29.91 in 10.0 mi Calm Calm - N/A   Clear
1:43 AM 43.0 °F - 39.9 °F 89% 29.90 in 10.0 mi Calm Calm - N/A   Mostly Cloudy
1:53 AM 44.1 °F - 41.0 °F 89% 29.91 in 10.0 mi Calm Calm - N/A   Mostly Cloudy
2:53 AM 43.0 °F 41.3 °F 41.0 °F 93% 29.91 in 10.0 mi West 3.5 mph - N/A   Mostly Cloudy
3:17 AM 43.0 °F 41.3 °F 41.0 °F 93% 29.90 in 10.0 mi WNW 3.5 mph - N/A   Mostly Cloudy
3:39 AM 43.0 °F 41.3 °F 39.9 °F 89% 29.90 in 10.0 mi SW 3.5 mph - N/A   Overcast
3:53 AM 42.1 °F - 39.9 °F 92% 29.90 in 10.0 mi Calm Calm - N/A   Overcast
4:53 AM 43.0 °F - 41.0 °F 93% 29.90 in 10.0 mi Calm Calm - N/A   Overcast
5:53 AM 46.0 °F - 43.0 °F 89% 29.91 in 10.0 mi Calm Calm - N/A   Overcast
6:10 AM 46.4 °F - 42.8 °F 87% 29.91 in 10.0 mi Calm Calm - N/A   Mostly Cloudy
6:53 AM 48.2 °F - 44.6 °F 87% 29.91 in 10.0 mi Calm Calm - N/A   Mostly Cloudy
7:53 AM 50.0 °F - 44.6 °F 82% 29.91 in 10.0 mi East 3.5 mph - N/A   Scattered Clouds
8:53 AM 55.0 °F - 43.0 °F 64% 29.90 in 10.0 mi North 4.6 mph - N/A   Scattered Clouds
9:53 AM 53.6 °F - 46.4 °F 77% 29.90 in 10.0 mi NNW 6.9 mph - N/A   Mostly Cloudy
10:53 AM 53.6 °F - 44.6 °F 72% 29.90 in 10.0 mi NNW 4.6 mph - N/A Rain Light Rain
11:53 AM 51.8 °F - 46.4 °F 82% 29.91 in 10.0 mi NNE 4.6 mph - N/A Rain Light Rain
12:53 PM 51.8 °F - 46.4 °F 82% 29.91 in 10.0 mi Calm Calm - N/A Rain Light Rain
1:53 PM 57.0 °F - 46.0 °F 67% 29.90 in 10.0 mi SE 6.9 mph - 0.00 in   Mostly Cloudy
2:53 PM 55.0 °F - 42.1 °F 62% 29.90 in 10.0 mi WNW 5.8 mph - N/A   Mostly Cloudy
3:53 PM 52.0 °F - 46.0 °F 80% 29.91 in 10.0 mi NW 4.6 mph - 0.05 in Rain Light Rain
4:53 PM 51.8 °F - 46.4 °F 82% 29.91 in 10.0 mi WNW 3.5 mph - N/A Rain Light Rain
5:53 PM 53.6 °F - 46.4 °F 77% 29.92 in 10.0 mi East 5.8 mph - N/A Rain Light Rain
6:53 PM 53.6 °F - 46.4 °F 77% 29.92 in 10.0 mi SE 3.5 mph - N/A Rain Light Rain
7:53 PM 51.8 °F - 46.4 °F 82% 29.92 in 10.0 mi SE 4.6 mph - N/A   Mostly Cloudy
8:53 PM 48.9 °F - 46.0 °F 90% 29.92 in 10.0 mi South 5.8 mph - N/A   Mostly Cloudy
9:53 PM 50.0 °F - 46.0 °F 86% 29.93 in 10.0 mi SSE 5.8 mph - N/A   Overcast
10:53 PM 48.0 °F - 45.0 °F 89% 29.93 in 10.0 mi SSW 4.6 mph - N/A   Overcast
11:53 PM 46.0 °F 44.8 °F 43.0 °F 89% 29.93 in 10.0 mi South 3.5 mph - N/A   Mostly Cloudy